[[{"header":{"parameterUnit":"m.s-1","parameterCategory":2,"la1":30.2991,"la2":30.254,"lo1":-89.0895,"lo2":-89.0444,"dy":0.0017,"dx":0.0017,"nx":28,"ny":28,"refTime":"2024-03-15T03:00:00:Z","depth":"0","parameterNumber":2,"parameterNumberName":"U-component_of_CURRENTS"},"data":[0,0,0,0,0,0,0,0,0,0,0,0,0,0,0,0,0,0,0,0,0,0,0,0,0,0,0,0,0,0,0,0,0,0,0,0,0,0,0,0,0,0,0,0,0,0,0,0,0,0,0,0,0,0,0,0,0,0,0.1897,0.1898,0,0.1911,0.1911,0.1912,0.1916,0.1916,0.1916,0.1916,0.1905,0.1905,0.1904,0,0,0,0,0,0,0,0,0,0,0,0,0,0.1878,0.1878,0.1897,0.1898,0.1898,0.1911,0.1912,0.1912,0.1916,0.1916,0.1916,0.1915,0.1905,0.1905,0.1904,0,0,0,0,0,0,0,0,0,0,0,0,0,0.1889,0.1878,0.1897,0.1901,0.1902,0.1911,0.1912,0.1912,0.1916,0.1916,0.1916,0.1915,0.1905,0.1905,0.1904,0.1905,0,0,0.1903,0.1903,0,0,0,0,0,0,0,0,0.1888,0.1889,0.1901,0.1901,0.1902,0.1912,0.1901,0.1908,0.1916,0.1911,0.1916,0.1915,0.1905,0.1904,0.1908,0.1904,0.1904,0.1903,0.1903,0.1903,0.1903,0,0,0,0,0,0,0,0.1887,0.1889,0.1903,0.1901,0.1901,0.1904,0.1905,0.1902,0.1908,0.1911,0.1911,0.1913,0.1905,0.1908,0.1908,0.1904,0.1903,0.1903,0.1903,0.1903,0.1936,0.1937,0,0,0,0,0,0,0.1885,0.1888,0.1903,0.1904,0.1894,0.1904,0.1906,0.1909,0.1908,0.1908,0.1913,0.1913,0.1909,0.1908,0.1907,0.193,0.1903,0.1903,0.1902,0.1935,0.1937,0.1938,0,0,0,0,0,0,0.1885,0.1887,0.1902,0.1896,0.1898,0.1904,0.1908,0.1909,0.1915,0.191,0.191,0.1918,0.1909,0.1908,0.1917,0.1929,0.1903,0.1902,0.1934,0.1936,0.1937,0.1962,0,0,0,0,0,0,0.1884,0.1886,0.1892,0.1896,0.1898,0.1913,0.1908,0.1909,0.1916,0.1916,0.1914,0.1913,0.1908,0.1918,0.1917,0.1928,0.1902,0.1933,0.1935,0.1937,0.196,0.1964,0.1968,0,0,0,0,0,0.1884,0.189,0.1892,0.1894,0.1904,0.1914,0.1916,0.192,0.1916,0.1924,0.1927,0.1913,0.193,0.1919,0.1917,0.1928,0.1932,0.1934,0.1936,0.1958,0.1963,0.1968,0,0,0,0,0,0,0.188,0.1891,0.1893,0.1902,0.191,0.1915,0.1923,0.1922,0.193,0.1931,0.1923,0.1923,0.1938,0.1932,0.1919,0.1946,0.193,0.1932,0.1947,0.1952,0.1956,0.1947,0.1902,0,0,0,0,0,0.1883,0.1892,0.1901,0.1907,0.1914,0.1919,0.1924,0.1927,0.1932,0.1936,0.1934,0.1938,0.1947,0.1948,0.1954,0.1964,0.1966,0.1972,0.1977,0.198,0.1974,0.2006,0.2012,0.1946,0.1946,0.1946,0,0,0.1881,0.1889,0.1894,0.1908,0.1915,0.1921,0.1922,0.1933,0.1936,0.1932,0.1941,0.1952,0.1955,0.1971,0.1977,0.1966,0.2001,0.1983,0.1986,0.1977,0.2009,0.2015,0.2021,0.1947,0.1947,0.1947,0,0,0.188,0.1894,0.1901,0.1909,0.1924,0.1929,0.1933,0.1943,0.1949,0.196,0.1964,0.1982,0.1987,0.1997,0.2,0.2029,0.2024,0.2036,0.2044,0.2076,0.2081,0.2086,0.2096,0.2102,0.2034,0.2034,0.2035,0,0.1877,0.1884,0.1904,0.1911,0.1917,0.1931,0.1936,0.1945,0.1956,0.1971,0.1965,0.2001,0.1997,0.2025,0.2034,0.2037,0.205,0.2022,0.208,0.2085,0.2089,0.2099,0.2105,0.2036,0.2036,0.2036,0.2036,0,0.1878,0.1885,0.1891,0.1905,0.1918,0.1924,0.1941,0.1961,0.197,0.1982,0.2017,0.2025,0.2047,0.2053,0.2045,0.2082,0.208,0.2084,0.2065,0.2098,0.2106,0.2111,0.2038,0.2038,0.2037,0.2037,0,0,0.1853,0.1885,0.1882,0.1888,0.1914,0.192,0.1947,0.1974,0.1986,0.2016,0.2034,0.2062,0.2079,0.2084,0.2091,0.2109,0.2145,0.2107,0.2108,0.2111,0.2207,0.2198,0.2202,0.2166,0.2167,0.2168,0.2199,0,0.1841,0.1849,0.1872,0.1876,0.1882,0.1918,0.1934,0.1967,0.1992,0.2016,0.2055,0.207,0.2088,0.2094,0.2125,0.2139,0.2161,0.2135,0.2179,0.218,0.2163,0.2209,0.2144,0.2166,0.2205,0.2206,0.2206,0,0.1823,0.1831,0.1835,0.1861,0.1867,0.1874,0.1914,0.1933,0.1988,0.2009,0.2062,0.2085,0.2129,0.2124,0.2193,0.218,0.2195,0.2203,0.2205,0.2188,0.2181,0.2141,0.2175,0.2143,0.2215,0.2214,0.2213,0,0.178,0.1801,0.1802,0.1808,0.1842,0.1858,0.1881,0.1932,0.1959,0.2006,0.204,0.2095,0.2134,0.2169,0.2217,0.2203,0.2281,0.2264,0.2272,0.2271,0.2218,0.221,0.2218,0.2307,0.2307,0.2307,0.2307,0,0.1749,0.1743,0.1779,0.1773,0.1779,0.1821,0.1836,0.1874,0.1929,0.1969,0.2036,0.2085,0.2151,0.2215,0.2228,0.2284,0.2306,0.2279,0.2286,0.2225,0.2218,0.2188,0.2163,0.2308,0.2308,0.2307,0.2307,0,0.1694,0.1715,0.1717,0.1748,0.1756,0.1762,0.1813,0.183,0.1897,0.1954,0.1976,0.2095,0.218,0.2244,0.2299,0.2312,0.2278,0.235,0.2265,0.2262,0.2212,0.219,0.2097,0.2024,0.2343,0.2343,0.2343,0,0.1662,0.1659,0.1687,0.1691,0.1701,0.1719,0.1733,0.1798,0.1831,0.1965,0.1995,0.2112,0.2189,0.229,0.2319,0.2351,0.2287,0.2301,0.2257,0.2208,0.2189,0.2087,0.2024,0.2193,0.2192,0.2191,0.219,0,0.1608,0.1624,0.1628,0.1638,0.1649,0.1661,0.1695,0.1715,0.1809,0.1877,0.1977,0.2048,0.2188,0.2217,0.229,0.2296,0.2189,0.2281,0.2258,0.2096,0.1957,0.189,0.2163,0.2182,0.2183,0.2183,0.2184,0.2184,0.157,0.1567,0.1584,0.1585,0.1595,0.1599,0.1592,0.1647,0.1696,0.1789,0.19,0.1991,0.211,0.2208,0.2205,0.2183,0.2138,0.2127,0.211,0.2016,0.192,0.2168,0.2182,0.2183,0.2184,0.2185,0.2185,0,0.1534,0.1536,0.1533,0.1532,0.1515,0.1542,0.1561,0.1551,0.1583,0.1705,0.1783,0.1909,0.1971,0.2051,0.2104,0.204,0.1914,0.1981,0.1826,0.1776,0.2035,0.2007,0.195,0.195,0.195,0.1951,0.1951,0.1951,0.152,0.1505,0.1501,0.1454,0.1446,0.1411,0.1405,0.1409,0.1469,0.1544,0.1629,0.1729,0.19,0.2006,0.1999,0.1942,0.1782,0.1695,0.1669,0.1881,0.1893,0.1904,0.1873,0.179,0.179,0.1333,0.133,0.1327]},{"header":{"parameterUnit":"m.s-1","parameterCategory":2,"la1":30.2991,"la2":30.254,"lo1":-89.0895,"lo2":-89.0444,"dy":0.0017,"dx":0.0017,"nx":28,"ny":28,"refTime":"2024-03-15T03:00:00:Z","depth":"0","parameterNumber":3,"parameterNumberName":"V-component_of_CURRENTS"},"data":[0,0,0,0,0,0,0,0,0,0,0,0,0,0,0,0,0,0,0,0,0,0,0,0,0,0,0,0,0,0,0,0,0,0,0,0,0,0,0,0,0,0,0,0,0,0,0,0,0,0,0,0,0,0,0,0,0,0,0.0098,0.0097,0,0.0044,0.0043,0.0043,0.001,0.001,0.0009,0.0009,-0.0087,-0.0089,-0.0092,0,0,0,0,0,0,0,0,0,0,0,0,0,0.0137,0.0136,0.0098,0.0097,0.0097,0.0044,0.0043,0.0043,0.001,0.001,0.0009,0.0009,-0.0086,-0.0089,-0.0092,0,0,0,0,0,0,0,0,0,0,0,0,0,0.0105,0.0136,0.0098,0.0075,0.0072,0.0044,0.0043,0.0042,0.001,0.001,0.0009,0.0009,-0.0085,-0.0089,-0.0092,-0.0112,0,0,-0.0103,-0.0105,0,0,0,0,0,0,0,0,0.0106,0.0103,0.0079,0.0076,0.0073,0.0034,0.0022,-0.0011,0.001,0.0033,0.0009,0.0009,-0.005,-0.0056,-0.0066,-0.0116,-0.012,-0.0104,-0.0106,-0.0108,-0.0109,0,0,0,0,0,0,0,0.0109,0.0105,0.0076,0.0078,0.0075,0.0055,0.005,0.0015,-0.0008,0.0031,0.0028,0.0023,-0.0052,-0.0063,-0.0069,-0.0122,-0.0104,-0.0107,-0.0109,-0.0111,-0.0177,-0.0176,0,0,0,0,0,0,0.0119,0.0107,0.0078,0.0074,0.0091,0.0054,0.0049,0.0046,-0.0007,-0.0015,0.0024,0.0022,-0.0056,-0.0065,-0.0073,-0.0077,-0.0108,-0.0111,-0.0113,-0.0177,-0.0177,-0.0176,0,0,0,0,0,0,0.012,0.0117,0.008,0.009,0.0084,0.0054,0.0051,0.0045,0.0035,-0.0012,-0.0021,0.002,-0.0057,-0.0067,-0.0095,-0.0082,-0.0113,-0.0116,-0.0178,-0.0177,-0.0176,-0.0101,0,0,0,0,0,0,0.0121,0.0118,0.012,0.0091,0.0084,0.0069,0.0051,0.0044,0.0033,0.003,-0.0018,-0.0027,-0.0058,-0.0089,-0.0099,-0.0088,-0.0119,-0.0178,-0.0177,-0.0177,-0.0104,-0.0098,-0.0092,0,0,0,0,0,0.0123,0.0128,0.012,0.0116,0.0087,0.0069,0.0064,0.0041,0.0033,0.0032,0.0002,-0.0025,-0.0091,-0.0092,-0.0103,-0.0093,-0.0179,-0.0178,-0.0177,-0.0107,-0.0099,-0.0093,0,0,0,0,0,0,0.0147,0.0125,0.0115,0.0113,0.0095,0.0064,0.0062,0.0046,0.0021,0.002,-0.0024,-0.0035,-0.0055,-0.0085,-0.0086,-0.0109,-0.0138,-0.0139,-0.0081,-0.0074,-0.0068,-0.0045,-0.0122,0,0,0,0,0,0.0153,0.0151,0.0126,0.0126,0.012,0.0092,0.0082,0.0067,0.0042,0.0031,-0.0001,-0.0033,-0.006,-0.0075,-0.0108,-0.0122,-0.0146,-0.0122,-0.0116,-0.0111,-0.0099,-0.0118,-0.0112,-0.0173,-0.0173,-0.0173,0,0,0.0161,0.015,0.0148,0.013,0.0116,0.0116,0.0086,0.0076,0.0078,0.0024,0.0016,-0.0019,-0.0061,-0.0075,-0.0086,-0.0097,-0.0108,-0.0109,-0.0104,-0.0096,-0.0116,-0.011,-0.0105,-0.0172,-0.0172,-0.0172,0,0,0.0182,0.0169,0.0177,0.0166,0.0149,0.0134,0.0135,0.0107,0.0098,0.0081,0.0049,0.0028,-0.0021,-0.0038,-0.0056,-0.0038,-0.0079,-0.0052,-0.0001,-0.0018,-0.0013,-0.0009,-0.0035,-0.0034,-0.0045,-0.0045,-0.0045,0,0.0194,0.0199,0.0176,0.0183,0.0181,0.0148,0.0159,0.0145,0.0113,0.0113,0.0088,0.0041,0.0001,-0.0001,0.0004,-0.0023,-0.0044,-0.0022,-0.0009,-0.0006,-0.0003,-0.003,-0.003,-0.0041,-0.0041,-0.0042,-0.0042,0,0.0223,0.0225,0.023,0.023,0.0226,0.0228,0.0209,0.0207,0.0188,0.0173,0.0161,0.0112,0.0088,0.0071,0.004,0.0047,0.0021,-0.0002,-0.0023,0.0008,-0.0024,-0.0024,-0.0036,-0.0037,-0.0038,-0.0039,0,0,0.025,0.0251,0.0252,0.0263,0.0251,0.0254,0.0264,0.0264,0.0279,0.0245,0.0259,0.0213,0.019,0.0169,0.0131,0.0116,0.011,0.0072,0.0069,0.0054,0.0066,0.0039,0.0035,0.009,0.009,0.0091,0.0034,0,0.0279,0.0305,0.0296,0.0324,0.0337,0.032,0.0337,0.0335,0.0319,0.0323,0.0286,0.0272,0.0227,0.0214,0.0197,0.0129,0.0112,0.0127,0.0031,0.0028,0.0007,0.0035,0.0054,0.0005,0.0033,0.0033,0.0032,0,0.0312,0.0324,0.0357,0.038,0.0386,0.0401,0.0425,0.0431,0.0429,0.0416,0.0403,0.0365,0.0342,0.0292,0.0217,0.0228,0.0159,0.0105,0.0101,0.0052,0.0001,-0.0022,0.0002,-0.0091,0.0031,0.0031,0.0031,0,0.0346,0.0368,0.0399,0.0404,0.0424,0.0445,0.0456,0.0463,0.0479,0.0469,0.0477,0.044,0.0419,0.0343,0.0226,0.0223,0.0133,0.0111,0.0024,0.002,0.0007,0.0001,-0.0061,0.0062,0.0062,0.0062,0.0063,0,0.038,0.0403,0.042,0.0435,0.0484,0.0485,0.0529,0.0533,0.0547,0.0578,0.0527,0.0541,0.0431,0.0363,0.0256,0.0138,0.0154,0.0042,0.0011,0.0032,0.003,-0.0078,-0.0148,0.006,0.0061,0.0061,0.0061,0,0.041,0.0418,0.0454,0.0485,0.05,0.0533,0.0573,0.0602,0.0609,0.0646,0.0647,0.0614,0.0535,0.0409,0.0275,0.0177,-0.0005,0.0006,0.0033,0.0006,-0.0144,-0.0212,-0.0326,-0.0383,-0.0078,-0.0078,-0.0079,0,0.0427,0.0449,0.0489,0.0514,0.0527,0.0572,0.0606,0.0628,0.0658,0.0696,0.072,0.0667,0.065,0.0442,0.0251,0.0067,-0.004,-0.0049,-0.0048,-0.0141,-0.024,-0.0282,-0.0325,-0.0042,-0.0042,-0.0043,-0.0043,0,0.0458,0.0471,0.0499,0.0548,0.0587,0.0634,0.0681,0.0721,0.0757,0.0805,0.0853,0.085,0.0669,0.0504,0.0238,0.0106,-0.0116,-0.0061,-0.0159,-0.0213,-0.0262,-0.0336,-0.0028,-0.0046,-0.0045,-0.0045,-0.0045,-0.0045,0.0481,0.0506,0.0541,0.0588,0.063,0.0688,0.0738,0.0801,0.0879,0.0963,0.0956,0.0985,0.0742,0.0402,0.0197,-0.0138,-0.015,-0.0218,-0.0292,-0.0325,-0.0378,-0.0081,-0.0134,-0.0135,-0.0135,-0.0135,-0.0135,0,0.0514,0.0538,0.0578,0.0633,0.0675,0.0698,0.0784,0.0847,0.0954,0.1045,0.1104,0.1023,0.071,0.0387,-0.0069,-0.031,-0.0399,-0.0444,-0.049,-0.0523,-0.0251,-0.0244,-0.0323,-0.0322,-0.0322,-0.0322,-0.0322,-0.0322,0.0534,0.0573,0.0589,0.0659,0.0697,0.0773,0.0827,0.0936,0.1026,0.1148,0.1194,0.1205,0.098,0.0171,-0.0391,-0.0535,-0.0694,-0.0739,-0.0841,-0.0641,-0.0625,-0.0609,-0.0617,-0.0772,-0.0773,-0.1056,-0.1059,-0.1061]}],[{"header":{"parameterUnit":"m.s-1","parameterCategory":2,"la1":30.2991,"la2":30.254,"lo1":-89.0895,"lo2":-89.0444,"dy":0.0017,"dx":0.0017,"nx":28,"ny":28,"refTime":"2024-03-15T03:00:00:Z","depth":"2","parameterNumber":2,"parameterNumberName":"U-component_of_CURRENTS"},"data":[0,0,0,0,0,0,0,0,0,0,0,0,0,0,0,0,0,0,0,0,0,0,0,0,0,0,0,0,0,0,0,0,0,0,0,0,0,0,0,0,0,0,0,0,0,0,0,0,0,0,0,0,0,0,0,0,0,0,0.1813,0.1813,0,0.1827,0.1827,0.1826,0.1827,0.1828,0.1828,0.1828,0.1855,0.1855,0.1856,0,0,0,0,0,0,0,0,0,0,0,0,0,0.179,0.179,0.1813,0.1813,0.1814,0.1827,0.1827,0.1826,0.1827,0.1828,0.1828,0.1828,0.1855,0.1855,0.1856,0,0,0,0,0,0,0,0,0,0,0,0,0,0.1797,0.179,0.1813,0.1819,0.182,0.1827,0.1827,0.1826,0.1827,0.1828,0.1828,0.1828,0.1854,0.1855,0.1856,0.1854,0,0,0.1858,0.1859,0,0,0,0,0,0,0,0,0.1797,0.1797,0.1818,0.1819,0.182,0.1829,0.1828,0.1838,0.1827,0.182,0.1828,0.1828,0.185,0.1851,0.1847,0.1855,0.1856,0.1858,0.1859,0.1859,0.1859,0,0,0,0,0,0,0,0.1796,0.1797,0.1814,0.1818,0.182,0.1822,0.1823,0.183,0.183,0.1821,0.1822,0.183,0.185,0.1846,0.1848,0.1857,0.1858,0.1859,0.1859,0.186,0.193,0.1931,0,0,0,0,0,0,0.1802,0.1796,0.1814,0.1815,0.1814,0.1823,0.1824,0.1823,0.183,0.1832,0.183,0.183,0.1845,0.1847,0.1849,0.1897,0.1859,0.186,0.186,0.1929,0.193,0.1932,0,0,0,0,0,0,0.1802,0.1803,0.1813,0.181,0.1812,0.1823,0.1822,0.1823,0.184,0.1837,0.1839,0.1849,0.1845,0.1848,0.1878,0.1896,0.186,0.1861,0.1927,0.1929,0.1931,0.1962,0,0,0,0,0,0,0.1801,0.1803,0.1805,0.181,0.1813,0.1826,0.1822,0.1823,0.1845,0.1846,0.1854,0.1855,0.1845,0.1877,0.1878,0.1897,0.1861,0.1925,0.1928,0.193,0.1959,0.1965,0.197,0,0,0,0,0,0.1799,0.1803,0.1805,0.1808,0.1815,0.1826,0.1828,0.1834,0.1846,0.1851,0.1867,0.1856,0.1895,0.1878,0.188,0.1899,0.1924,0.1927,0.193,0.1957,0.1964,0.197,0,0,0,0,0,0,0.179,0.1804,0.1806,0.1813,0.1824,0.1828,0.1841,0.1848,0.1864,0.1873,0.1872,0.1875,0.1906,0.1905,0.1887,0.193,0.1908,0.1912,0.1928,0.1934,0.194,0.1921,0.1862,0,0,0,0,0,0.1791,0.1805,0.1811,0.1821,0.1829,0.184,0.1849,0.1853,0.1869,0.1876,0.1885,0.19,0.1917,0.1929,0.1936,0.1961,0.1957,0.1977,0.1982,0.1986,0.1974,0.2004,0.201,0.1942,0.1942,0.1942,0,0,0.1796,0.1804,0.1814,0.1822,0.1834,0.1841,0.1846,0.1866,0.1877,0.1877,0.1904,0.1918,0.1928,0.1953,0.1967,0.1957,0.2004,0.199,0.1994,0.1979,0.2008,0.2014,0.202,0.1944,0.1944,0.1944,0,0,0.1807,0.1817,0.1828,0.1838,0.1858,0.1859,0.1872,0.1886,0.1899,0.1925,0.1932,0.1958,0.1984,0.1989,0.1998,0.204,0.203,0.2053,0.2064,0.2094,0.21,0.2104,0.2105,0.211,0.2057,0.2057,0.2057,0,0.1809,0.1817,0.1834,0.1844,0.1855,0.1871,0.188,0.1894,0.1917,0.1936,0.194,0.1989,0.1996,0.2028,0.2039,0.2049,0.2058,0.2037,0.21,0.2104,0.2108,0.2108,0.2113,0.2059,0.2059,0.2058,0.2058,0,0.1819,0.183,0.1843,0.1857,0.1871,0.1885,0.1903,0.1928,0.1952,0.1964,0.2009,0.2021,0.2051,0.2062,0.2061,0.2099,0.2093,0.2101,0.2079,0.2117,0.2115,0.2119,0.2061,0.2061,0.206,0.206,0,0,0.1803,0.184,0.1842,0.1851,0.1878,0.1886,0.1924,0.195,0.1972,0.2007,0.2036,0.2071,0.2086,0.2095,0.2105,0.2123,0.2158,0.2126,0.2126,0.2117,0.2211,0.2193,0.2195,0.2186,0.2187,0.2188,0.2197,0,0.18,0.1816,0.1838,0.1856,0.1865,0.1901,0.1923,0.1957,0.199,0.202,0.2058,0.2082,0.2098,0.2111,0.214,0.2151,0.2171,0.2153,0.2183,0.2183,0.2155,0.22,0.2036,0.2029,0.2201,0.2201,0.2202,0,0.179,0.1803,0.1817,0.1851,0.1858,0.187,0.1915,0.1939,0.1995,0.2023,0.2074,0.2098,0.2138,0.2139,0.2193,0.2187,0.2201,0.2206,0.2207,0.2177,0.2173,0.2021,0.203,0.2208,0.2208,0.2207,0.2207,0,0.1753,0.1787,0.1796,0.1807,0.1845,0.1866,0.1889,0.1942,0.1971,0.2024,0.206,0.2107,0.2144,0.2174,0.2214,0.2207,0.2261,0.2253,0.2246,0.2244,0.21,0.2084,0.2287,0.2287,0.2287,0.2287,0.2287,0,0.173,0.1736,0.1779,0.178,0.1794,0.1837,0.1859,0.1897,0.1953,0.1988,0.2059,0.2097,0.2161,0.2212,0.2221,0.2256,0.2282,0.2247,0.2253,0.2107,0.2093,0.2243,0.2238,0.2287,0.2287,0.2287,0.2287,0,0.1685,0.1712,0.1723,0.1763,0.1774,0.1786,0.1841,0.1861,0.1928,0.1981,0.2004,0.2105,0.2171,0.2228,0.227,0.2276,0.2289,0.2294,0.211,0.2094,0.224,0.2237,0.2268,0.2268,0.2267,0.2267,0.2267,0,0.1659,0.1663,0.1699,0.1706,0.1722,0.175,0.1766,0.1833,0.1865,0.1982,0.2005,0.2103,0.2158,0.223,0.2243,0.226,0.2298,0.2112,0.2068,0.224,0.2242,0.2239,0.2236,0.188,0.1877,0.1874,0.1872,0,0.1616,0.1633,0.1642,0.1658,0.1674,0.1692,0.173,0.1749,0.1837,0.1897,0.197,0.2021,0.212,0.2077,0.213,0.2112,0.2094,0.2058,0.2292,0.1925,0.1879,0.188,0.1889,0.1847,0.1849,0.1851,0.1853,0.1854,0.1583,0.1582,0.1602,0.161,0.1624,0.1629,0.1625,0.1673,0.1713,0.1776,0.1865,0.1892,0.1934,0.1934,0.1886,0.1861,0.2007,0.1906,0.1912,0.1921,0.189,0.1848,0.1801,0.1804,0.1805,0.1807,0.1808,0,0.1551,0.1557,0.1555,0.156,0.1547,0.1577,0.1594,0.1578,0.1594,0.1661,0.1704,0.1596,0.159,0.1629,0.1569,0.1587,0.1541,0.1506,0.1426,0.1454,0.1478,0.142,0.1209,0.1207,0.1204,0.1202,0,0,0.1538,0.1525,0.1519,0.1483,0.1482,0.1455,0.1449,0.143,0.1453,0.1423,0.1421,0.1528,0.1603,0.1384,0.1369,0.1279,0.1346,0.1225,0.1715,0.1651,0.1672,0.1731,0.1678,0,0,0,0,0]},{"header":{"parameterUnit":"m.s-1","parameterCategory":2,"la1":30.2991,"la2":30.254,"lo1":-89.0895,"lo2":-89.0444,"dy":0.0017,"dx":0.0017,"nx":28,"ny":28,"refTime":"2024-03-15T03:00:00:Z","depth":"2","parameterNumber":3,"parameterNumberName":"V-component_of_CURRENTS"},"data":[0,0,0,0,0,0,0,0,0,0,0,0,0,0,0,0,0,0,0,0,0,0,0,0,0,0,0,0,0,0,0,0,0,0,0,0,0,0,0,0,0,0,0,0,0,0,0,0,0,0,0,0,0,0,0,0,0,0,-0.0036,-0.0036,0,-0.0081,-0.0081,-0.0082,-0.0111,-0.0111,-0.0111,-0.0111,-0.0198,-0.02,-0.0202,0,0,0,0,0,0,0,0,0,0,0,0,0,-0.0011,-0.0011,-0.0036,-0.0036,-0.0037,-0.008,-0.0081,-0.0082,-0.0111,-0.0111,-0.0111,-0.0111,-0.0197,-0.02,-0.0202,0,0,0,0,0,0,0,0,0,0,0,0,0,-0.0038,-0.0011,-0.0036,-0.0055,-0.0057,-0.008,-0.0081,-0.0082,-0.0111,-0.0111,-0.0111,-0.0111,-0.0196,-0.0199,-0.0203,-0.0225,0,0,-0.0214,-0.0215,0,0,0,0,0,0,0,0,-0.0036,-0.0039,-0.0052,-0.0053,-0.0056,-0.0088,-0.0104,-0.0131,-0.0111,-0.0093,-0.0111,-0.0111,-0.0164,-0.017,-0.0181,-0.0229,-0.0233,-0.0214,-0.0216,-0.0217,-0.0218,0,0,0,0,0,0,0,-0.0034,-0.0037,-0.0056,-0.0052,-0.0054,-0.0073,-0.0076,-0.011,-0.013,-0.0094,-0.0096,-0.0097,-0.0165,-0.0177,-0.0183,-0.0234,-0.0214,-0.0217,-0.0219,-0.022,-0.0283,-0.0283,0,0,0,0,0,0,-0.0022,-0.0035,-0.0055,-0.0057,-0.0043,-0.0073,-0.0077,-0.008,-0.0129,-0.0136,-0.0097,-0.0098,-0.0171,-0.0179,-0.0186,-0.0189,-0.0217,-0.0221,-0.0223,-0.0284,-0.0283,-0.0283,0,0,0,0,0,0,-0.0021,-0.0023,-0.0053,-0.0045,-0.005,-0.0073,-0.0076,-0.008,-0.0086,-0.013,-0.0138,-0.0096,-0.0172,-0.0181,-0.0207,-0.0193,-0.0222,-0.0226,-0.0284,-0.0284,-0.0283,-0.0211,0,0,0,0,0,0,-0.0021,-0.0023,-0.0021,-0.0044,-0.005,-0.0059,-0.0076,-0.0081,-0.0086,-0.0088,-0.0133,-0.0141,-0.0172,-0.0202,-0.0211,-0.0198,-0.0228,-0.0285,-0.0284,-0.0283,-0.0214,-0.0208,-0.0202,0,0,0,0,0,-0.002,-0.0015,-0.0021,-0.0023,-0.0047,-0.0058,-0.0063,-0.0081,-0.0086,-0.0086,-0.0114,-0.0139,-0.0203,-0.0205,-0.0215,-0.0203,-0.0285,-0.0284,-0.0283,-0.0216,-0.0209,-0.0203,0,0,0,0,0,0,-0.0002,-0.0018,-0.0025,-0.0025,-0.0037,-0.0062,-0.0061,-0.0074,-0.0096,-0.0097,-0.0139,-0.015,-0.0168,-0.0196,-0.0197,-0.0219,-0.0246,-0.0248,-0.0192,-0.0185,-0.018,-0.0162,-0.0231,0,0,0,0,0,0.0003,0.0003,-0.0015,-0.0013,-0.0016,-0.0037,-0.0043,-0.0054,-0.0076,-0.0085,-0.0116,-0.0147,-0.0174,-0.0187,-0.0219,-0.0233,-0.0259,-0.0231,-0.0225,-0.022,-0.0213,-0.0238,-0.0233,-0.028,-0.028,-0.028,0,0,0.0012,0.0003,0.0003,-0.0009,-0.0019,-0.0018,-0.0041,-0.0043,-0.0041,-0.0092,-0.01,-0.0133,-0.0174,-0.0189,-0.0198,-0.0209,-0.0221,-0.0219,-0.0214,-0.021,-0.0236,-0.0232,-0.0227,-0.0279,-0.0279,-0.0279,0,0,0.0033,0.0023,0.0031,0.0024,0.0015,0.0001,0.0005,-0.0015,-0.0022,-0.0036,-0.0068,-0.0089,-0.0132,-0.0154,-0.0171,-0.0155,-0.0194,-0.0165,-0.0119,-0.0143,-0.0139,-0.0136,-0.0162,-0.0162,-0.0158,-0.0157,-0.0157,0,0.0046,0.005,0.0033,0.0039,0.0039,0.0015,0.0026,0.0015,-0.0011,-0.0012,-0.0028,-0.0078,-0.0114,-0.0125,-0.0117,-0.0142,-0.0163,-0.0139,-0.0134,-0.0132,-0.013,-0.0158,-0.0158,-0.0154,-0.0154,-0.0155,-0.0155,0,0.0069,0.0075,0.0082,0.0082,0.0079,0.0084,0.007,0.007,0.0058,0.0043,0.003,-0.0016,-0.0041,-0.0055,-0.0082,-0.0081,-0.0104,-0.0127,-0.0147,-0.0121,-0.0152,-0.0154,-0.0149,-0.015,-0.0151,-0.0152,0,0,0.0099,0.0098,0.0103,0.0114,0.0102,0.0107,0.0115,0.0115,0.0128,0.01,0.0111,0.0068,0.0047,0.0027,-0.0008,-0.0027,-0.0035,-0.0063,-0.0066,-0.0082,-0.0087,-0.0095,-0.0099,-0.0055,-0.0055,-0.0055,-0.0113,0,0.0126,0.0148,0.0138,0.0167,0.0179,0.0165,0.0175,0.0173,0.0162,0.0165,0.013,0.0118,0.0078,0.007,0.0048,-0.0018,-0.0037,-0.0017,-0.0117,-0.012,-0.0125,-0.0101,-0.008,-0.013,-0.0116,-0.0116,-0.0117,0,0.0154,0.0166,0.0196,0.0216,0.0222,0.0235,0.0254,0.0259,0.0252,0.0243,0.023,0.0197,0.0171,0.0131,0.0049,0.0064,0.0001,-0.0052,-0.0056,-0.009,-0.0132,-0.0156,-0.0135,-0.0121,-0.012,-0.012,-0.012,0,0.0186,0.0211,0.0239,0.0244,0.0257,0.0279,0.0287,0.0287,0.0303,0.0296,0.0306,0.026,0.0245,0.0165,0.0065,0.0056,-0.0032,-0.0062,-0.013,-0.0132,-0.0148,-0.015,-0.0117,-0.0117,-0.0117,-0.0117,-0.0117,0,0.0216,0.0241,0.0263,0.0277,0.0322,0.0319,0.0361,0.0361,0.0372,0.04,0.0354,0.0363,0.0254,0.0192,0.009,-0.002,-0.0014,-0.0115,-0.0143,-0.0122,-0.0122,-0.0142,-0.0144,-0.0119,-0.0118,-0.0118,-0.0118,0,0.0245,0.0253,0.0292,0.0322,0.0337,0.0371,0.0411,0.0438,0.0443,0.0479,0.0484,0.0442,0.0364,0.0248,0.0112,0.0019,-0.0095,-0.0138,-0.0105,-0.0127,-0.0188,-0.0186,-0.0218,-0.0219,-0.022,-0.022,-0.0221,0,0.026,0.0284,0.0329,0.0355,0.0373,0.0421,0.0451,0.047,0.0501,0.0529,0.0551,0.0501,0.0473,0.0276,0.0102,-0.0069,-0.0095,-0.017,-0.0182,-0.0172,-0.0196,-0.0193,-0.019,-0.0179,-0.0179,-0.0179,-0.0179,0,0.0292,0.031,0.0338,0.0392,0.0435,0.0484,0.0532,0.057,0.0601,0.0642,0.0673,0.0658,0.0488,0.0322,0.0092,-0.0024,-0.014,-0.0176,-0.0174,-0.0151,-0.0138,-0.0161,-0.0159,-0.0179,-0.0179,-0.0179,-0.0179,-0.0179,0.0315,0.034,0.0378,0.0432,0.0481,0.0541,0.0587,0.0644,0.0713,0.0766,0.0751,0.0731,0.0549,0.0261,0.0065,-0.014,-0.0135,-0.0215,-0.0214,-0.0213,-0.0192,-0.018,-0.0226,-0.0226,-0.0226,-0.0226,-0.0227,0,0.0339,0.0368,0.0414,0.0473,0.0528,0.0556,0.0636,0.0678,0.0766,0.0809,0.0836,0.067,0.05,0.0292,-0.0009,-0.019,-0.02,-0.0246,-0.0222,-0.022,-0.0219,-0.0197,-0.0234,-0.0234,-0.0235,-0.0235,0,0,0.035,0.0388,0.0409,0.05,0.0551,0.0628,0.0678,0.0738,0.0783,0.0813,0.0812,0.079,0.0556,0.0338,0.0099,-0.0072,-0.0106,-0.0103,-0.0078,-0.0019,-0.0016,-0.0181,-0.0143,0,0,0,0,0]}],[{"header":{"parameterUnit":"m.s-1","parameterCategory":2,"la1":30.2991,"la2":30.254,"lo1":-89.0895,"lo2":-89.0444,"dy":0.0017,"dx":0.0017,"nx":28,"ny":28,"refTime":"2024-03-15T03:00:00:Z","depth":"4","parameterNumber":2,"parameterNumberName":"U-component_of_CURRENTS"},"data":[0,0,0,0,0,0,0,0,0,0,0,0,0,0,0,0,0,0,0,0,0,0,0,0,0,0,0,0,0,0,0,0,0,0,0,0,0,0,0,0,0,0,0,0,0,0,0,0,0,0,0,0,0,0,0,0,0,0,0.1065,0.1065,0,0.1086,0.1086,0.1086,0.1105,0.1105,0.1106,0.1106,0.1141,0.1141,0.1141,0,0,0,0,0,0,0,0,0,0,0,0,0,0.1016,0.1016,0.1065,0.1065,0.1066,0.1086,0.1086,0.1086,0.1105,0.1105,0.1106,0.1107,0.114,0.1141,0.1141,0,0,0,0,0,0,0,0,0,0,0,0,0,0.1034,0.1017,0.1065,0.108,0.1082,0.1086,0.1086,0.1086,0.1105,0.1105,0.1106,0.1107,0.114,0.1141,0.1142,0.113,0,0,0.1143,0.1144,0,0,0,0,0,0,0,0,0.1033,0.1035,0.1077,0.1079,0.1081,0.1097,0.1082,0.1103,0.1104,0.1092,0.1106,0.1107,0.1129,0.113,0.1128,0.1131,0.1133,0.1144,0.1144,0.1144,0.1144,0,0,0,0,0,0,0,0.1032,0.1034,0.107,0.1078,0.108,0.1078,0.1081,0.1085,0.1103,0.1093,0.1096,0.1103,0.113,0.1127,0.1129,0.1133,0.1144,0.1144,0.1144,0.1145,0.1205,0.1206,0,0,0,0,0,0,0.1036,0.1033,0.1069,0.1071,0.1063,0.1079,0.1082,0.1088,0.1103,0.1107,0.1103,0.1104,0.1125,0.1128,0.113,0.1186,0.1144,0.1145,0.1145,0.1204,0.1205,0.1206,0,0,0,0,0,0,0.1035,0.1039,0.1068,0.1055,0.1059,0.1079,0.1085,0.1088,0.1113,0.1111,0.1114,0.1129,0.1126,0.1129,0.1154,0.1185,0.1145,0.1146,0.1202,0.1204,0.1206,0.1253,0,0,0,0,0,0,0.1034,0.1039,0.1052,0.1056,0.1061,0.1089,0.1085,0.1088,0.1117,0.1119,0.1133,0.1136,0.1127,0.1153,0.1155,0.1185,0.1146,0.1201,0.1203,0.1205,0.125,0.1256,0.1262,0,0,0,0,0,0.1032,0.1041,0.1052,0.1057,0.1075,0.109,0.1092,0.1106,0.1118,0.1131,0.1141,0.1137,0.1169,0.1154,0.1156,0.1187,0.12,0.1202,0.1205,0.1248,0.1255,0.1262,0,0,0,0,0,0,0.1026,0.1044,0.1056,0.1072,0.1091,0.1095,0.1111,0.1122,0.1139,0.115,0.1146,0.1149,0.1184,0.1178,0.1162,0.1212,0.1186,0.1189,0.1218,0.1225,0.1231,0.123,0.1147,0,0,0,0,0,0.1032,0.1046,0.1064,0.108,0.1093,0.1108,0.112,0.1133,0.1146,0.1155,0.1166,0.1179,0.1191,0.1203,0.121,0.1234,0.1232,0.1258,0.1264,0.1269,0.1269,0.1291,0.1299,0.1216,0.1215,0.1215,0,0,0.1035,0.1048,0.1057,0.1081,0.1097,0.1114,0.1118,0.1145,0.1163,0.1156,0.1189,0.12,0.1202,0.1229,0.1245,0.1232,0.1293,0.1272,0.1276,0.1274,0.1295,0.1303,0.131,0.1217,0.1217,0.1217,0,0,0.1042,0.1063,0.1077,0.1096,0.1129,0.1135,0.1152,0.1175,0.1193,0.1221,0.1224,0.1253,0.1272,0.1279,0.1283,0.1326,0.1322,0.1339,0.1369,0.1391,0.1397,0.1403,0.1416,0.1423,0.1343,0.1343,0.1343,0,0.1049,0.1067,0.1084,0.1105,0.1125,0.1149,0.1171,0.1187,0.1217,0.1235,0.1242,0.1286,0.1292,0.1322,0.134,0.134,0.1349,0.1341,0.1398,0.1404,0.1409,0.142,0.1427,0.1346,0.1346,0.1345,0.1345,0,0.106,0.1086,0.1099,0.113,0.1151,0.1178,0.1203,0.1232,0.126,0.1276,0.1325,0.1336,0.1365,0.1377,0.1372,0.1419,0.1413,0.1402,0.1378,0.142,0.143,0.1436,0.135,0.1349,0.1348,0.1347,0,0,0.1051,0.1097,0.1107,0.1126,0.1171,0.1186,0.1224,0.1259,0.1288,0.1328,0.1365,0.14,0.1422,0.1429,0.1438,0.1457,0.1507,0.1453,0.1453,0.1463,0.1557,0.148,0.1479,0.1511,0.1513,0.1514,0.155,0,0.1061,0.1097,0.112,0.1159,0.118,0.1217,0.1245,0.1283,0.1318,0.1358,0.1392,0.1429,0.1437,0.1463,0.1489,0.1503,0.1525,0.1498,0.1517,0.1518,0.1442,0.1484,0.1518,0.1555,0.1556,0.1557,0.1558,0,0.1065,0.1091,0.1129,0.1174,0.1188,0.1216,0.1271,0.1301,0.1358,0.1388,0.1441,0.1467,0.152,0.1511,0.1569,0.1556,0.1565,0.1568,0.1569,0.1483,0.1452,0.1503,0.1568,0.1568,0.1567,0.1566,0.1565,0,0.104,0.1095,0.1124,0.1143,0.1197,0.1228,0.1262,0.1318,0.135,0.1416,0.1452,0.1508,0.1553,0.1577,0.1613,0.1597,0.1662,0.1633,0.1569,0.1564,0.16,0.1593,0.1664,0.1664,0.1664,0.1664,0.1664,0,0.1029,0.1057,0.1121,0.1138,0.1177,0.1223,0.1272,0.1311,0.1375,0.141,0.1475,0.1509,0.1575,0.1624,0.1632,0.1631,0.1685,0.158,0.157,0.162,0.1615,0.1604,0.1597,0.1665,0.1665,0.1665,0.1664,0,0.0992,0.1035,0.1073,0.1141,0.1165,0.1197,0.1276,0.1302,0.1376,0.1426,0.1453,0.1535,0.1592,0.1648,0.169,0.1652,0.1653,0.1637,0.17,0.1693,0.153,0.1525,0.155,0.1547,0.1545,0.1544,0.1542,0,0.0973,0.0989,0.1068,0.109,0.1126,0.1183,0.1213,0.1292,0.1316,0.1424,0.1433,0.1529,0.1574,0.1577,0.1637,0.1653,0.1635,0.1621,0.1557,0.1531,0.152,0.1518,0.1516,0.1539,0.1538,0.1538,0.1537,0,0.0934,0.0971,0.1001,0.1051,0.109,0.1125,0.1178,0.1188,0.127,0.1356,0.1378,0.1413,0.1478,0.1513,0.1556,0.1558,0.1618,0.1599,0.1602,0.1541,0.1519,0.1509,0.1509,0.1531,0.1532,0.1532,0.1533,0,0.0905,0.0916,0.0961,0.0992,0.104,0.1047,0.1085,0.111,0.1149,0.1259,0.1265,0.1365,0.1453,0.1465,0.1498,0.1509,0.1471,0.1406,0.1418,0.1427,0.1373,0.1325,0.1274,0,0,0,0,0,0.0868,0.0868,0.0896,0.0921,0.0964,0.0991,0.1046,0.1082,0.1164,0.1144,0.12,0.1248,0.1298,0.1351,0.1338,0.1451,0.1484,0.1429,0.1417,0.1492,0.15,0.145,0,0,0,0,0,0,0.0841,0.0865,0.087,0.0854,0.0859,0.0893,0.0923,0.0979,0.0969,0.1062,0.1095,0.1174,0.1244,0.1298,0.1315,0.1333,0.1299,0.1497,0.1493,0.1488,0.1495,0.1501,0.1452,0,0,0,0,0]},{"header":{"parameterUnit":"m.s-1","parameterCategory":2,"la1":30.2991,"la2":30.254,"lo1":-89.0895,"lo2":-89.0444,"dy":0.0017,"dx":0.0017,"nx":28,"ny":28,"refTime":"2024-03-15T03:00:00:Z","depth":"4","parameterNumber":3,"parameterNumberName":"V-component_of_CURRENTS"},"data":[0,0,0,0,0,0,0,0,0,0,0,0,0,0,0,0,0,0,0,0,0,0,0,0,0,0,0,0,0,0,0,0,0,0,0,0,0,0,0,0,0,0,0,0,0,0,0,0,0,0,0,0,0,0,0,0,0,0,-0.0027,-0.0027,0,-0.0051,-0.0051,-0.0052,-0.0071,-0.0071,-0.0071,-0.0071,-0.0121,-0.0122,-0.0123,0,0,0,0,0,0,0,0,0,0,0,0,0,-0.0022,-0.0022,-0.0027,-0.0027,-0.0027,-0.0051,-0.0051,-0.0052,-0.0071,-0.0071,-0.0071,-0.0071,-0.0121,-0.0122,-0.0123,0,0,0,0,0,0,0,0,0,0,0,0,0,-0.0034,-0.0022,-0.0027,-0.0039,-0.004,-0.0051,-0.0051,-0.0052,-0.0071,-0.0071,-0.0071,-0.0071,-0.012,-0.0122,-0.0124,-0.0131,0,0,-0.0129,-0.013,0,0,0,0,0,0,0,0,-0.0033,-0.0034,-0.0037,-0.0038,-0.004,-0.0058,-0.0068,-0.0079,-0.0071,-0.006,-0.0071,-0.0071,-0.0102,-0.0105,-0.011,-0.0133,-0.0135,-0.0129,-0.013,-0.0131,-0.0132,0,0,0,0,0,0,0,-0.0032,-0.0033,-0.0037,-0.0037,-0.0039,-0.0052,-0.0054,-0.007,-0.008,-0.0061,-0.0062,-0.0064,-0.0103,-0.0108,-0.0111,-0.0136,-0.0129,-0.0131,-0.0132,-0.0133,-0.0176,-0.0176,0,0,0,0,0,0,-0.0026,-0.0032,-0.0036,-0.0038,-0.0036,-0.0052,-0.0054,-0.0052,-0.008,-0.0084,-0.0064,-0.0065,-0.0105,-0.0109,-0.0113,-0.0124,-0.0131,-0.0133,-0.0134,-0.0176,-0.0176,-0.0176,0,0,0,0,0,0,-0.0026,-0.0026,-0.0035,-0.0035,-0.0037,-0.0052,-0.005,-0.0052,-0.0058,-0.0081,-0.0086,-0.0066,-0.0105,-0.011,-0.0127,-0.0126,-0.0134,-0.0135,-0.0176,-0.0176,-0.0176,-0.0146,0,0,0,0,0,0,-0.0026,-0.0026,-0.0024,-0.0035,-0.0037,-0.0038,-0.0049,-0.0053,-0.0058,-0.006,-0.0085,-0.009,-0.0105,-0.0124,-0.0128,-0.0129,-0.0137,-0.0176,-0.0176,-0.0176,-0.0146,-0.0145,-0.0143,0,0,0,0,0,-0.0025,-0.0019,-0.0024,-0.0024,-0.0033,-0.0038,-0.004,-0.0052,-0.0058,-0.0058,-0.0076,-0.0089,-0.0128,-0.0125,-0.0131,-0.0131,-0.0176,-0.0176,-0.0176,-0.0147,-0.0145,-0.0143,0,0,0,0,0,0,-0.0014,-0.002,-0.0026,-0.0021,-0.0028,-0.0041,-0.0042,-0.005,-0.0064,-0.0066,-0.0089,-0.0095,-0.011,-0.0125,-0.0121,-0.0145,-0.0154,-0.0155,-0.0131,-0.0129,-0.0127,-0.0125,-0.0138,0,0,0,0,0,-0.0011,-0.0008,-0.0017,-0.0013,-0.0016,-0.0029,-0.0033,-0.004,-0.0052,-0.0059,-0.0076,-0.0096,-0.0114,-0.0124,-0.0142,-0.0154,-0.0171,-0.0159,-0.0157,-0.0155,-0.0158,-0.0187,-0.0188,-0.0176,-0.0176,-0.0176,0,0,-0.0005,-0.0008,-0.0006,-0.0011,-0.0018,-0.002,-0.0032,-0.0034,-0.0037,-0.0062,-0.0072,-0.0091,-0.0116,-0.0129,-0.0137,-0.0142,-0.0165,-0.0155,-0.0154,-0.0157,-0.0187,-0.0189,-0.019,-0.0177,-0.0177,-0.0177,0,0,0.0008,0.0006,0.001,0.0005,-0.0002,-0.001,-0.0009,-0.0021,-0.0028,-0.0039,-0.0059,-0.0077,-0.0101,-0.012,-0.0133,-0.0134,-0.0154,-0.0138,-0.0128,-0.0156,-0.0158,-0.0159,-0.0168,-0.0171,-0.0137,-0.0137,-0.0137,0,0.0014,0.0017,0.001,0.0011,0.0009,-0.0004,-0.0002,-0.001,-0.0026,-0.0032,-0.0038,-0.0077,-0.0099,-0.0119,-0.012,-0.013,-0.0143,-0.0132,-0.0154,-0.0156,-0.0157,-0.0167,-0.017,-0.0136,-0.0136,-0.0136,-0.0136,0,0.0025,0.0028,0.0031,0.0028,0.0025,0.0027,0.0015,0.0011,0.0001,-0.0011,-0.003,-0.0058,-0.0081,-0.0091,-0.0107,-0.0129,-0.0132,-0.0147,-0.0157,-0.0157,-0.0167,-0.017,-0.0134,-0.0134,-0.0135,-0.0135,0,0,0.004,0.0038,0.004,0.0043,0.0034,0.0036,0.0032,0.0023,0.0024,0.0002,-0.0003,-0.0041,-0.0055,-0.0071,-0.0092,-0.012,-0.0141,-0.0137,-0.0139,-0.0143,-0.0191,-0.0172,-0.0174,-0.016,-0.0161,-0.0161,-0.0187,0,0.005,0.0058,0.0053,0.0062,0.0065,0.0056,0.0057,0.0048,0.0035,0.0028,-0.0005,-0.0018,-0.0047,-0.0053,-0.0086,-0.0125,-0.0152,-0.0132,-0.0194,-0.0196,-0.0177,-0.0179,-0.0164,-0.019,-0.0191,-0.0191,-0.0192,0,0.0058,0.0064,0.0074,0.0083,0.0084,0.0088,0.0089,0.009,0.0073,0.0064,0.0039,0.0017,-0.0018,-0.0043,-0.0115,-0.0099,-0.0145,-0.0179,-0.0181,-0.018,-0.0185,-0.0195,-0.0199,-0.0198,-0.0198,-0.0197,-0.0197,0,0.007,0.0079,0.009,0.0091,0.0098,0.0104,0.0109,0.0099,0.0109,0.0088,0.0094,0.0042,0.0033,-0.004,-0.0102,-0.0113,-0.0177,-0.02,-0.0227,-0.0226,-0.0248,-0.0247,-0.0262,-0.0262,-0.0262,-0.0262,-0.0261,0,0.0079,0.0089,0.0099,0.0105,0.0129,0.0125,0.0146,0.0142,0.0145,0.0166,0.0118,0.0123,0.0032,-0.001,-0.0088,-0.0156,-0.0166,-0.0226,-0.0235,-0.0232,-0.0229,-0.025,-0.0248,-0.0262,-0.0262,-0.0262,-0.0262,0,0.0087,0.0092,0.0109,0.0125,0.0135,0.0153,0.0183,0.0199,0.0198,0.0225,0.0225,0.0188,0.0135,0.0048,-0.0056,-0.0119,-0.0199,-0.0225,-0.0193,-0.0201,-0.0234,-0.0231,-0.0264,-0.0263,-0.0263,-0.0263,-0.0263,0,0.0091,0.0101,0.013,0.0149,0.0159,0.0187,0.0212,0.0224,0.0245,0.0269,0.0286,0.0251,0.0216,0.0098,-0.0012,-0.0148,-0.0177,-0.0218,-0.0255,-0.023,-0.0237,-0.0234,-0.0231,-0.0262,-0.0262,-0.0262,-0.0262,0,0.0101,0.0112,0.0129,0.017,0.02,0.0241,0.0276,0.03,0.0326,0.0329,0.0346,0.0286,0.0233,0.0118,0.0022,-0.0085,-0.0194,-0.0216,-0.0218,-0.0253,-0.0229,-0.0235,-0.0232,-0.0261,-0.0261,-0.0261,-0.0261,0,0.0111,0.0125,0.0151,0.0189,0.0233,0.0281,0.03,0.0335,0.0361,0.0386,0.0393,0.033,0.0292,0.0152,0.0059,-0.0036,-0.008,-0.013,-0.0138,-0.0141,-0.0105,-0.0056,-0.0042,0,0,0,0,0,0.0114,0.013,0.0168,0.021,0.0257,0.0282,0.0339,0.0355,0.0386,0.0407,0.0403,0.0354,0.0232,0.0175,0.0082,0.004,-0.011,-0.0075,-0.0176,-0.0255,-0.0256,-0.0235,0,0,0,0,0,0,0.0114,0.0143,0.0164,0.0224,0.0254,0.0309,0.0346,0.0369,0.038,0.0398,0.0337,0.0315,0.0193,0.0284,0.0075,0.0047,-0.0034,-0.0132,-0.0134,-0.0254,-0.0255,-0.0256,-0.0235,0,0,0,0,0]}]]